• In Kazakhstan
  • List of Countries
  • For 7 days
  • Water Temperature
  • Satellite Maps
  • Weather Map
  • News
  • Weather Widgets
  • user-avatar
    Login

    Hourly Weather Eisenstadt

    Today, 25 September, Monday

    Time Temperature Precipitation Wind Pressure Humidity
    00:00 +10°C° 0 mm 1 mps 726 mmHg 90%
    01:00 +10°C° 0 mm 1 mps 726 mmHg 91%
    02:00 +10°C° 0 mm 1 mps 726 mmHg 91%
    03:00 +9°C° 0 mm 1 mps 726 mmHg 92%
    04:00 +9°C° 0 mm 1 mps 725 mmHg 92%
    05:00 +10°C° 0 mm 1 mps 726 mmHg 91%
    06:00 +9°C° 0 mm 0 mps 726 mmHg 90%
    07:00 +9°C° 0 mm 0 mps 726 mmHg 89%
    08:00 +12°C° 0 mm 1 mps 726 mmHg 85%
    09:00 +13°C° 0 mm 1 mps 726 mmHg 81%
    10:00 +14°C° 0 mm 1 mps 726 mmHg 77%
    11:00 +15°C° 0.1 mm 1 mps 726 mmHg 74%
    12:00 +15°C° 0.1 mm 1 mps 726 mmHg 71%
    13:00 +16°C° 0.1 mm 2 mps 726 mmHg 67%
    14:00 +16°C° 0 mm 2 mps 726 mmHg 68%
    15:00 +16°C° 0 mm 2 mps 726 mmHg 69%
    16:00 +16°C° 0 mm 2 mps 726 mmHg 70%
    17:00 +15°C° 0 mm 2 mps 726 mmHg 75%
    18:00 +13°C° 0 mm 2 mps 726 mmHg 79%
    19:00 +12°C° 0 mm 1 mps 726 mmHg 84%
    20:00 +12°C° 0 mm 1 mps 726 mmHg 85%
    21:00 +11°C° 0 mm 1 mps 727 mmHg 86%
    22:00 +11°C° 0 mm 1 mps 727 mmHg 87%
    23:00 +11°C° 0 mm 1 mps 727 mmHg 87%

    Tomorrow, 26 September, Tuesday

    Time Temperature Precipitation Wind Pressure Humidity
    00:00 +11°C° 0 mm 1 mps 727 mmHg 87%
    01:00 +10°C° 0 mm 1 mps 727 mmHg 88%
    02:00 +10°C° 0 mm 1 mps 727 mmHg 89%
    03:00 +10°C° 0 mm 1 mps 727 mmHg 90%
    04:00 +10°C° 0 mm 1 mps 727 mmHg 91%
    05:00 +11°C° 0.1 mm 1 mps 727 mmHg 91%
    06:00 +11°C° 0.1 mm 1 mps 727 mmHg 90%
    07:00 +11°C° 0.1 mm 1 mps 727 mmHg 90%
    08:00 +12°C° 0.2 mm 1 mps 727 mmHg 87%
    09:00 +13°C° 0.2 mm 1 mps 728 mmHg 84%
    10:00 +14°C° 0.2 mm 1 mps 728 mmHg 81%
    11:00 +15°C° 0.1 mm 1 mps 728 mmHg 78%
    12:00 +16°C° 0.1 mm 1 mps 728 mmHg 76%
    13:00 +18°C° 0.1 mm 1 mps 727 mmHg 73%
    14:00 +18°C° 0.1 mm 1 mps 727 mmHg 74%
    15:00 +18°C° 0.1 mm 1 mps 727 mmHg 74%
    16:00 +18°C° 0.1 mm 1 mps 727 mmHg 75%
    17:00 +15°C° 0.1 mm 1 mps 727 mmHg 78%
    18:00 +14°C° 0.1 mm 1 mps 727 mmHg 81%
    19:00 +13°C° 0.1 mm 1 mps 727 mmHg 84%
    20:00 +13°C° 0 mm 1 mps 727 mmHg 85%
    21:00 +13°C° 0 mm 1 mps 728 mmHg 85%
    22:00 +12°C° 0 mm 1 mps 728 mmHg 86%
    23:00 +12°C° 0 mm 1 mps 728 mmHg 86%

    Day after tomorrow, 27 September, Wednesday

    Time Temperature Precipitation Wind Pressure Humidity
    00:00 +12°C° 0 mm 1 mps 728 mmHg 87%
    01:00 +12°C° 0 mm 1 mps 728 mmHg 87%
    02:00 +12°C° 0 mm 1 mps 728 mmHg 88%
    03:00 +11°C° 0 mm 1 mps 728 mmHg 88%
    04:00 +11°C° 0 mm 1 mps 727 mmHg 89%
    05:00 +12°C° 0 mm 1 mps 728 mmHg 88%
    06:00 +12°C° 0 mm 1 mps 728 mmHg 87%
    07:00 +13°C° 0 mm 1 mps 728 mmHg 86%
    08:00 +14°C° 0 mm 1 mps 729 mmHg 80%
    09:00 +16°C° 0 mm 1 mps 729 mmHg 75%
    10:00 +18°C° 0 mm 2 mps 729 mmHg 69%
    11:00 +18°C° 0.2 mm 2 mps 729 mmHg 69%
    12:00 +18°C° 0.2 mm 2 mps 729 mmHg 69%
    13:00 +19°C° 0.2 mm 3 mps 729 mmHg 69%
    14:00 +18°C° 0.3 mm 3 mps 729 mmHg 72%
    15:00 +17°C° 0.3 mm 3 mps 729 mmHg 76%
    16:00 +17°C° 0.3 mm 3 mps 729 mmHg 79%
    17:00 +14°C° 0 mm 3 mps 729 mmHg 83%
    18:00 +14°C° 0 mm 2 mps 729 mmHg 87%
    19:00 +13°C° 0 mm 2 mps 729 mmHg 91%
    20:00 +13°C° 0 mm 2 mps 729 mmHg 91%
    21:00 +12°C° 0 mm 2 mps 729 mmHg 91%
    22:00 +12°C° 0 mm 2 mps 730 mmHg 91%
    23:00 +12°C° 0 mm 2 mps 729 mmHg 90%

    28 September, Thursday

    Time Temperature Precipitation Wind Pressure Humidity
    00:00 +10°C° 0 mm 2 mps 729 mmHg 89%
    01:00 +11°C° 0 mm 1 mps 729 mmHg 88%
    02:00 +11°C° 0 mm 1 mps 729 mmHg 88%
    03:00 +11°C° 0 mm 1 mps 729 mmHg 87%
    04:00 +11°C° 0 mm 1 mps 729 mmHg 87%
    05:00 +11°C° 0 mm 1 mps 729 mmHg 87%
    06:00 +12°C° 0 mm 1 mps 729 mmHg 87%
    07:00 +12°C° 0 mm 1 mps 730 mmHg 86%
    08:00 +13°C° 0 mm 2 mps 730 mmHg 81%
    09:00 +14°C° 0 mm 2 mps 730 mmHg 76%
    10:00 +15°C° 0 mm 2 mps 730 mmHg 71%
    11:00 +16°C° 0 mm 2 mps 730 mmHg 68%
    12:00 +16°C° 0 mm 2 mps 730 mmHg 66%
    13:00 +16°C° 0 mm 2 mps 730 mmHg 64%
    14:00 +16°C° 0 mm 2 mps 729 mmHg 64%
    15:00 +16°C° 0 mm 2 mps 729 mmHg 65%
    16:00 +16°C° 0 mm 2 mps 729 mmHg 65%
    17:00 +15°C° 0 mm 2 mps 729 mmHg 69%
    18:00 +14°C° 0 mm 1 mps 729 mmHg 72%
    19:00 +13°C° 0 mm 1 mps 729 mmHg 76%
    20:00 +13°C° 0 mm 1 mps 729 mmHg 76%
    21:00 +12°C° 0 mm 1 mps 729 mmHg 77%
    22:00 +12°C° 0 mm 1 mps 729 mmHg 77%
    23:00 +12°C° 0 mm 1 mps 729 mmHg 78%

    29 September, Friday

    Time Temperature Precipitation Wind Pressure Humidity
    00:00 +11°C° 0 mm 1 mps 729 mmHg 79%
    01:00 +11°C° 0 mm 1 mps 729 mmHg 80%
    02:00 +10°C° 0 mm 1 mps 729 mmHg 81%
    03:00 +10°C° 0 mm 1 mps 729 mmHg 81%
    04:00 +10°C° 0 mm 1 mps 729 mmHg 81%
    05:00 +10°C° 0 mm 1 mps 729 mmHg 81%
    06:00 +10°C° 0 mm 1 mps 729 mmHg 80%
    07:00 +11°C° 0 mm 1 mps 729 mmHg 79%
    08:00 +13°C° 0 mm 1 mps 729 mmHg 72%
    09:00 +15°C° 0 mm 1 mps 729 mmHg 64%
    10:00 +18°C° 0 mm 1 mps 729 mmHg 56%
    11:00 +18°C° 0 mm 1 mps 728 mmHg 54%
    12:00 +18°C° 0 mm 2 mps 728 mmHg 51%
    13:00 +19°C° 0 mm 2 mps 728 mmHg 49%
    14:00 +18°C° 0 mm 2 mps 728 mmHg 50%
    15:00 +18°C° 0 mm 2 mps 727 mmHg 52%
    16:00 +19°C° 0 mm 1 mps 727 mmHg 53%
    17:00 +16°C° 0 mm 1 mps 727 mmHg 59%
    18:00 +14°C° 0 mm 1 mps 727 mmHg 64%
    19:00 +12°C° 0 mm 0 mps 727 mmHg 70%
    20:00 +12°C° 0 mm 1 mps 727 mmHg 72%
    21:00 +12°C° 0 mm 1 mps 727 mmHg 73%
    22:00 +11°C° 0 mm 1 mps 727 mmHg 75%
    23:00 +11°C° 0 mm 1 mps 727 mmHg 77%

    30 September, Saturday

    Time Temperature Precipitation Wind Pressure Humidity
    00:00 +10°C° 0 mm 1 mps 727 mmHg 79%
    01:00 +10°C° 0 mm 1 mps 727 mmHg 81%
    02:00 +10°C° 0 mm 1 mps 726 mmHg 82%
    03:00 +9°C° 0 mm 1 mps 726 mmHg 83%
    04:00 +9°C° 0 mm 1 mps 726 mmHg 85%
    05:00 +9°C° 0 mm 1 mps 726 mmHg 83%
    06:00 +10°C° 0 mm 1 mps 726 mmHg 82%
    07:00 +10°C° 0 mm 1 mps 726 mmHg 81%
    08:00 +12°C° 0 mm 1 mps 726 mmHg 73%
    09:00 +14°C° 0 mm 1 mps 726 mmHg 65%
    10:00 +16°C° 0 mm 1 mps 726 mmHg 56%
    11:00 +18°C° 0 mm 1 mps 726 mmHg 54%
    12:00 +18°C° 0 mm 1 mps 726 mmHg 51%
    13:00 +19°C° 0 mm 1 mps 725 mmHg 49%
    14:00 +19°C° 0 mm 1 mps 725 mmHg 50%
    15:00 +19°C° 0 mm 1 mps 725 mmHg 51%
    16:00 +18°C° 0 mm 1 mps 724 mmHg 52%
    17:00 +16°C° 0 mm 1 mps 724 mmHg 57%
    18:00 +14°C° 0 mm 1 mps 724 mmHg 62%
    19:00 +11°C° 0 mm 0 mps 725 mmHg 67%
    20:00 +12°C° 0 mm 1 mps 725 mmHg 68%
    21:00 +11°C° 0 mm 1 mps 725 mmHg 70%
    22:00 +11°C° 0 mm 1 mps 725 mmHg 71%
    23:00 +11°C° 0 mm 1 mps 725 mmHg 72%
    Show more